| time (UTC) | temp F | wind direction | speed knots | gust knots | rain 1hr in | rain 24hr in | rain mn in | humidity % | barometer mb |
| 20260505222022 | 63 | 283 | 1.7 | 3.5 | 0.00 | 0.00 | 0.00 | 59 | 1005.4 |
| 20260505221019 | 64 | 240 | 1.7 | 6.1 | 0.00 | 0.00 | 0.00 | 59 | 1005.2 |
| 20260505220018 | 64 | 279 | 0.9 | 7.0 | 0.00 | 0.00 | 0.00 | 58 | 1005.3 |
| 20260505215020 | 64 | 272 | 2.6 | 11.3 | 0.00 | 0.00 | 0.00 | 57 | 1005.1 |
| 20260505214027 | 65 | 260 | 2.6 | 9.6 | 0.00 | 0.00 | 0.00 | 56 | 1005.0 |
| 20260505213019 | 65 | 273 | 2.6 | 9.6 | 0.00 | 0.00 | 0.00 | 56 | 1005.1 |
| 20260505212021 | 65 | 269 | 3.5 | 9.6 | 0.00 | 0.00 | 0.00 | 56 | 1004.9 |
| 20260505211038 | 64 | 242 | 2.6 | 12.2 | 0.00 | 0.00 | 0.00 | 55 | 1004.6 |
| 20260505210017 | 64 | 222 | 1.7 | 7.0 | 0.00 | 0.00 | 0.00 | 53 | 1004.6 |
| 20260505205023 | 63 | 221 | 2.6 | 7.8 | 0.00 | 0.00 | 0.00 | 53 | 1004.5 |
| 20260505204022 | 62 | 244 | 1.7 | 7.0 | 0.00 | 0.00 | 0.00 | 55 | 1004.5 |
| 20260505203017 | 62 | 262 | 0.0 | 1.7 | 0.00 | 0.00 | 0.00 | 57 | 1004.2 |
| 20260505202020 | 63 | 263 | 0.9 | 1.7 | 0.00 | 0.00 | 0.00 | 55 | 1003.9 |
| 20260505201018 | 63 | 250 | 0.9 | 1.7 | 0.00 | 0.00 | 0.00 | 54 | 1003.7 |
| 20260505200020 | 64 | 154 | 0.0 | 1.7 | 0.00 | 0.00 | 0.00 | 51 | 1003.5 |
| 20260505195019 | 65 | 169 | 0.9 | 2.6 | 0.00 | 0.00 | 0.00 | 51 | 1003.5 |
| 20260505194023 | 66 | 137 | 0.0 | 0.9 | 0.00 | 0.00 | 0.00 | 49 | 1003.4 |
| 20260505193019 | 66 | 151 | 1.7 | 3.5 | 0.00 | 0.00 | 0.00 | 48 | 1003.4 |
| 20260505192020 | 67 | 142 | 3.5 | 7.0 | 0.00 | 0.00 | 0.00 | 47 | 1003.3 |
| 20260505191023 | 67 | 138 | 4.3 | 8.7 | 0.00 | 0.00 | 0.00 | 47 | 1003.2 |
| 20260505190045 | 67 | 137 | 4.3 | 8.7 | 0.00 | 0.00 | 0.00 | 46 | 1003.2 |
| 20260505185021 | 68 | 138 | 4.3 | 7.8 | 0.00 | 0.00 | 0.00 | 46 | 1003.1 |
| 20260505184041 | 68 | 144 | 5.2 | 7.8 | 0.00 | 0.00 | 0.00 | 46 | 1003.1 |
| 20260505183022 | 69 | 140 | 5.2 | 7.8 | 0.00 | 0.00 | 0.00 | 45 | 1003.0 |
| 20260505182019 | 70 | 142 | 5.2 | 9.6 | 0.00 | 0.00 | 0.00 | 44 | 1003.0 |
| 20260505181021 | 70 | 142 | 5.2 | 8.7 | 0.00 | 0.00 | 0.00 | 43 | 1002.9 |
| 20260505180040 | 71 | 143 | 5.2 | 12.2 | 0.00 | 0.00 | 0.00 | 43 | 1002.9 |
| 20260505175019 | 71 | 135 | 6.1 | 11.3 | 0.00 | 0.00 | 0.00 | 42 | 1002.9 |
| 20260505174104 | 72 | 143 | 5.2 | 9.6 | 0.00 | 0.00 | 0.00 | 42 | 1002.9 |
| 20260505173019 | 73 | 137 | 5.2 | 12.2 | 0.00 | 0.00 | 0.00 | 41 | 1002.9 |
| 20260505172016 | 73 | 143 | 7.8 | 14.8 | 0.00 | 0.00 | 0.00 | 40 | 1002.8 |
| 20260505171019 | 74 | 139 | 5.2 | 9.6 | 0.00 | 0.00 | 0.00 | 40 | 1002.8 |
| 20260505170020 | 75 | 144 | 4.3 | 9.6 | 0.00 | 0.00 | 0.00 | 39 | 1003.0 |
| 20260505165018 | 75 | 146 | 4.3 | 8.7 | 0.00 | 0.00 | 0.00 | 38 | 1003.1 |
| 20260505164018 | 75 | 138 | 5.2 | 9.6 | 0.00 | 0.00 | 0.00 | 38 | 1003.2 |
| 20260505163019 | 75 | 125 | 4.3 | 7.0 | 0.00 | 0.00 | 0.00 | 37 | 1003.2 |
| 20260505162519 | 75 | 147 | 5.2 | 13.0 | 0.00 | 0.00 | 0.00 | 37 | 1003.2 |
| 20260505161517 | 76 | 147 | 4.3 | 9.6 | 0.00 | 0.00 | 0.00 | 36 | 1003.3 |
| 20260505160616 | 76 | 156 | 3.5 | 7.8 | 0.00 | 0.00 | 0.00 | 35 | 1003.4 |
| 20260505152521 | 77 | 137 | 8.7 | 15.6 | 0.00 | 0.00 | 0.00 | 34 | 1003.4 |
| 20260505151522 | 78 | 135 | 8.7 | 20.9 | 0.00 | 0.00 | 0.00 | 32 | 1003.4 |
| 20260505150523 | 79 | 147 | 8.7 | 15.6 | 0.00 | 0.00 | 0.00 | 31 | 1003.4 |
| 20260505140518 | 81 | 127 | 8.7 | 14.8 | 0.00 | 0.00 | 0.00 | 27 | 1003.4 |
| 20260505124522 | 82 | 127 | 5.2 | 13.0 | 0.00 | 0.00 | 0.00 | 25 | 1004.5 |
| 20260505123542 | 81 | 133 | 4.3 | 9.6 | 0.00 | 0.00 | 0.00 | 26 | 1004.7 |
| 20260505122519 | 81 | 141 | 7.8 | 15.6 | 0.00 | 0.00 | 0.00 | 25 | 1004.9 |
| 20260505121520 | 82 | 135 | 6.1 | 11.3 | 0.00 | 0.00 | 0.00 | 27 | 1005.1 |
| 20260505120522 | 81 | 116 | 6.1 | 13.9 | 0.00 | 0.00 | 0.00 | 30 | 1005.3 |
| 20260505115520 | 80 | 126 | 7.0 | 15.6 | 0.00 | 0.00 | 0.00 | 30 | 1005.6 |
| 20260505114519 | 79 | 126 | 7.0 | 14.8 | 0.00 | 0.00 | 0.00 | 32 | 1005.7 |
| 20260505113520 | 78 | 133 | 3.5 | 11.3 | 0.00 | 0.00 | 0.00 | 35 | 1005.9 |
| 20260505112517 | 78 | 128 | 3.5 | 8.7 | 0.00 | 0.00 | 0.00 | 37 | 1006.1 |
| 20260505111519 | 77 | 113 | 6.1 | 12.2 | 0.00 | 0.00 | 0.00 | 37 | 1006.5 |
| 20260505110518 | 77 | 136 | 4.3 | 8.7 | 0.00 | 0.00 | 0.00 | 37 | 1006.5 |
| 20260505101517 | 75 | 126 | 4.3 | 8.7 | 0.00 | 0.00 | 0.00 | 39 | 1007.3 |
| 20260505100541 | 74 | 135 | 4.3 | 8.7 | 0.00 | 0.00 | 0.00 | 38 | 1007.5 |
| 20260505095518 | 74 | 101 | 5.2 | 12.2 | 0.00 | 0.00 | 0.00 | 38 | 1007.6 |
| 20260505094519 | 74 | 127 | 2.6 | 6.1 | 0.00 | 0.00 | 0.00 | 39 | 1007.7 |
| 20260505093519 | 74 | 115 | 4.3 | 9.6 | 0.00 | 0.00 | 0.00 | 39 | 1007.7 |
| 20260505092523 | 74 | 100 | 3.5 | 7.0 | 0.00 | 0.00 | 0.00 | 40 | 1007.9 |
| 20260505091604 | 74 | 56 | 1.7 | 5.2 | 0.00 | 0.00 | 0.00 | 43 | 1008.0 |
| 20260505090518 | 74 | 7 | 1.7 | 3.5 | 0.00 | 0.00 | 0.00 | 44 | 1008.1 |
| 20260505085519 | 74 | 348 | 2.6 | 7.0 | 0.00 | 0.00 | 0.00 | 45 | 1008.1 |
| 20260505084521 | 73 | 0 | 1.7 | 5.2 | 0.00 | 0.00 | 0.00 | 46 | 1008.2 |
| 20260505083518 | 72 | 26 | 1.7 | 5.2 | 0.00 | 0.00 | 0.00 | 48 | 1008.2 |
| 20260505082518 | 71 | 17 | 1.7 | 5.2 | 0.00 | 0.00 | 0.00 | 49 | 1008.4 |
| 20260505081539 | 70 | 359 | 0.9 | 5.2 | 0.00 | 0.00 | 0.00 | 50 | 1008.6 |
| 20260505080521 | 69 | 0 | 2.6 | 5.2 | 0.00 | 0.00 | 0.00 | 50 | 1008.6 |
| 20260505075520 | 67 | 352 | 1.7 | 2.6 | 0.00 | 0.00 | 0.00 | 53 | 1008.5 |
| 20260505074517 | 66 | 39 | 0.9 | 3.5 | 0.00 | 0.00 | 0.00 | 51 | 1008.6 |
| 20260505073518 | 65 | 350 | 1.7 | 2.6 | 0.00 | 0.00 | 0.00 | 53 | 1008.7 |
| 20260505072522 | 63 | 31 | 0.9 | 2.6 | 0.00 | 0.00 | 0.00 | 53 | 1008.8 |
| 20260505071520 | 62 | 90 | 0.0 | 1.7 | 0.00 | 0.00 | 0.00 | 54 | 1008.8 |
| 20260505070519 | 61 | 37 | 0.0 | 1.7 | 0.00 | 0.00 | 0.00 | 57 | 1008.9 |
| 20260505065517 | 60 | 58 | 0.9 | 1.7 | 0.00 | 0.00 | 0.00 | 59 | 1008.9 |
| 20260505064521 | 59 | 61 | 0.9 | 1.7 | 0.00 | 0.00 | 0.00 | 62 | 1008.9 |
| 20260505063517 | 57 | 92 | 0.9 | 1.7 | 0.00 | 0.00 | 0.00 | 68 | 1008.9 |
| 20260505062519 | 55 | 44 | 0.0 | 1.7 | 0.00 | 0.00 | 0.00 | 70 | 1008.9 |
| 20260505061517 | 55 | 0.0 | 0.0 | 0.00 | 0.00 | 0.00 | 73 | 1008.9 | |
| 20260505060521 | 55 | 0.0 | 0.0 | 0.00 | 0.00 | 0.00 | 71 | 1008.9 | |
| 20260505055523 | 55 | 0.0 | 0.0 | 0.00 | 0.00 | 0.00 | 71 | 1008.8 | |
| 20260505054525 | 54 | 41 | 0.0 | 0.9 | 0.00 | 0.00 | 0.00 | 71 | 1008.9 |
| 20260505053521 | 54 | 0.0 | 0.0 | 0.00 | 0.00 | 0.00 | 74 | 1008.9 | |
| 20260505052521 | 54 | 317 | 0.9 | 1.7 | 0.00 | 0.00 | 0.00 | 71 | 1008.9 |
| 20260505051521 | 54 | 317 | 0.0 | 0.9 | 0.00 | 0.00 | 0.00 | 75 | 1008.7 |
| 20260505050522 | 53 | 317 | 0.9 | 1.7 | 0.00 | 0.00 | 0.00 | 76 | 1008.7 |
| 20260505041517 | 50 | 0.0 | 0.0 | 0.00 | 0.00 | 0.00 | 78 | 1008.6 | |
| 20260505040521 | 50 | 317 | 0.0 | 0.9 | 0.00 | 0.00 | 0.00 | 78 | 1008.5 |
| 20260505035522 | 50 | 0.0 | 0.0 | 0.00 | 0.00 | 0.00 | 79 | 1008.6 | |
| 20260505034545 | 50 | 0.0 | 0.0 | 0.00 | 0.00 | 0.00 | 78 | 1008.5 | |
| 20260505033537 | 50 | 0.0 | 0.0 | 0.00 | 0.00 | 0.00 | 77 | 1008.5 | |
| 20260505032541 | 50 | 0.0 | 0.0 | 0.00 | 0.00 | 0.00 | 77 | 1008.6 | |
| 20260505031517 | 50 | 317 | 0.0 | 0.9 | 0.00 | 0.00 | 0.00 | 76 | 1008.7 |
| 20260505030522 | 51 | 317 | 0.0 | 0.9 | 0.00 | 0.00 | 0.00 | 75 | 1008.6 |
| 20260505025520 | 51 | 317 | 0.0 | 0.9 | 0.00 | 0.00 | 0.00 | 75 | 1008.7 |
| 20260505024520 | 51 | 317 | 0.0 | 0.9 | 0.00 | 0.00 | 0.00 | 74 | 1008.7 |
| 20260505023540 | 52 | 312 | 0.9 | 1.7 | 0.00 | 0.00 | 0.00 | 72 | 1008.8 |
| 20260505022523 | 52 | 0.0 | 0.0 | 0.00 | 0.00 | 0.00 | 72 | 1008.8 | |
| 20260505021518 | 53 | 0.0 | 0.0 | 0.00 | 0.00 | 0.00 | 71 | 1008.9 | |
| 20260505020521 | 53 | 0.0 | 0.0 | 0.00 | 0.00 | 0.00 | 71 | 1009.0 | |
| 20260505015520 | 53 | 0.0 | 0.0 | 0.00 | 0.00 | 0.00 | 70 | 1009.1 | |
| 20260505014517 | 53 | 162 | 0.0 | 0.9 | 0.00 | 0.00 | 0.00 | 69 | 1009.1 |
| 20260505013521 | 54 | 119 | 0.9 | 1.7 | 0.00 | 0.00 | 0.00 | 68 | 1009.2 |
| 20260505012605 | 54 | 174 | 0.0 | 0.9 | 0.00 | 0.00 | 0.00 | 67 | 1009.2 |
| 20260505011520 | 55 | 192 | 0.0 | 0.9 | 0.00 | 0.00 | 0.00 | 65 | 1009.3 |
| 20260505010516 | 56 | 231 | 0.0 | 1.7 | 0.00 | 0.00 | 0.00 | 62 | 1009.2 |
| 20260505005521 | 56 | 277 | 0.9 | 5.2 | 0.00 | 0.00 | 0.00 | 62 | 1009.2 |
| 20260505004520 | 56 | 269 | 0.0 | 0.9 | 0.00 | 0.00 | 0.00 | 63 | 1009.2 |
| 20260505003539 | 56 | 289 | 0.9 | 2.6 | 0.00 | 0.00 | 0.00 | 63 | 1009.2 |
| 20260505002518 | 57 | 279 | 0.9 | 2.6 | 0.00 | 0.00 | 0.00 | 61 | 1009.2 |
| 20260505001517 | 58 | 279 | 0.9 | 1.7 | 0.00 | 0.00 | 0.00 | 59 | 1009.2 |
| 20260505000517 | 58 | 288 | 0.9 | 1.7 | 0.00 | 0.00 | 0.00 | 59 | 1009.1 |
| 20260504235545 | 58 | 295 | 1.7 | 3.5 | 0.00 | 0.00 | 0.00 | 59 | 1009.2 |
| 20260504234518 | 58 | 15 | 0.9 | 0.9 | 0.00 | 0.00 | 0.00 | 59 | 1009.3 |
| 20260504233539 | 58 | 343 | 0.0 | 0.9 | 0.00 | 0.00 | 0.00 | 60 | 1009.4 |
| 20260504232521 | 58 | 338 | 0.0 | 0.9 | 0.00 | 0.00 | 0.00 | 58 | 1009.4 |
| 20260504231519 | 59 | 0.0 | 0.0 | 0.00 | 0.00 | 0.00 | 56 | 1009.4 | |
| 20260504230521 | 60 | 285 | 0.0 | 0.9 | 0.00 | 0.00 | 0.00 | 55 | 1009.6 |
| 20260504225516 | 61 | 0.0 | 0.0 | 0.00 | 0.00 | 0.00 | 53 | 1009.5 | |
| 20260504224519 | 62 | 285 | 1.7 | 2.6 | 0.00 | 0.00 | 0.00 | 50 | 1009.7 |
| 20260504223521 | 64 | 330 | 0.0 | 0.9 | 0.00 | 0.00 | 0.00 | 48 | 1009.6 |
| 20260504222518 | 65 | 319 | 0.9 | 2.6 | 0.00 | 0.00 | 0.00 | 45 | 1009.6 |